Tracking 20232 objects as of 20-Jan-2020
HD Live streaming from Space Station
objects crossing your sky now

COSMOS 1275 DEB

Track COSMOS 1275 DEB now!
10-day predictions


NORAD ID: 13798
Int'l Code: 1981-053GV
Perigee: 922.9 km
Apogee: 1,044.8 km
Inclination: 83.0 °
Period: 104.6 minutes
Semi major axis: 7354 km
RCS: 0.0159 m2 (small)
Launch date: June 4, 1981
Source: Commonwealth of Independent States (former USSR) (CIS)
Launch site: PLESETSK MISSILE AND SPACE COMPLEX (PKMTR)

Note: This is SATELLITE DEBRIS
aabbcc
Your satellite tracking list
Your tracking list is empty




NASA's NSSDC Master Catalog

Two Line Element Set (TLE):
1 13798U 81053GS  20019.46003357 +.00000144 +00000-0 +12921-3 0  9992
2 13798 083.0126 031.8263 0082862 219.2635 140.2495 13.76380640919986
Source of the keplerian elements: AFSPC